Wind_Speed
22 22 21 21 20 20 20 20 20 20 19 19 19 18 17 17 18 18 17 17 16 16 16 15 15 14 14 13 12 11 10 9 8 8 9 9 9 9 9 10 10 11 15
24 23 24 23 22 22 23 23 23 23 22 22 22 21 21 20 20 20 20 20 20 19 19 19 19 18 18 17 15 14 13 12 12 11 11 11 11 11 11 11 11 12 13
24 24 25 25 26 26 26 26 26 25 25 25 25 24 24 23 23 22 23 23 23 22 22 22 22 21 21 20 19 18 17 15 14 14 14 14 13 13 13 13 13 14 14
23 24 25 26 26 27 28 28 28 28 27 27 27 26 26 25 25 25 25 26 26 25 24 24 24 24 24 24 23 22 20 19 17 16 16 16 16 15 15 15 15 16 17
21 23 24 25 27 28 29 29 29 29 29 28 28 28 27 27 27 27 27 27 27 27 26 26 26 27 27 27 26 25 24 22 20 19 19 18 18 18 18 18 17 17 18
21 22 24 25 27 28 29 29 30 30 29 29 29 29 29 29 29 29 29 29 29 29 28 28 29 29 29 29 29 28 27 24 23 22 21 21 20 20 19 19 19 19 19
21 22 24 25 27 28 29 30 30 31 31 32 31 31 32 31 31 31 31 31 31 31 31 30 30 30 30 31 31 30 29 26 25 24 24 23 22 22 21 20 20 20 20
24 25 27 28 29 31 32 32 33 34 34 35 35 35 35 34 34 34 34 33 33 33 33 32 32 31 31 31 31 31 31 28 26 25 26 26 25 24 23 22 21 21 21
29 30 31 32 33 34 35 36 36 37 37 38 38 38 38 38 37 37 37 36 35 35 35 35 35 34 33 32 32 32 32 30 28 27 27 27 27 26 25 24 23 22 21
30 32 33 34 34 36 37 38 38 38 38 38 38 39 40 40 40 40 40 39 38 38 38 38 37 37 36 34 34 34 33 32 30 29 29 29 29 29 28 26 25 24 22
31 31 32 33 33 34 36 37 38 38 38 37 38 38 39 40 41 41 42 41 41 41 41 41 40 40 38 37 36 36 35 34 33 31 30 31 31 31 30 29 28 26 24
32 32 33 33 34 35 37 38 38 39 39 40 39 39 39 39 40 41 42 42 43 43 42 42 42 42 41 40 39 38 37 37 35 33 31 31 32 33 32 31 30 29 26
35 35 35 36 37 38 39 41 42 42 43 43 43 43 42 42 42 41 41 42 42 42 43 43 43 43 42 42 42 41 40 39 38 36 34 32 32 33 33 31 31 30 29
36 36 37 38 39 40 41 42 44 45 46 46 47 47 46 46 46 45 44 43 43 42 43 44 44 43 43 43 43 43 42 41 40 38 36 34 34 33 33 31 31 31 30
40 41 42 43 44 44 45 45 46 46 47 48 49 50 50 50 49 49 48 47 46 44 44 44 45 45 45 45 45 44 43 42 41 40 38 37 36 35 34 33 32 31 31
44 46 47 48 48 49 50 51 52 52 51 51 51 52 52 53 53 52 52 51 50 49 48 47 47 48 48 47 47 47 46 45 43 42 41 39 39 38 37 36 35 34 33
48 50 51 52 53 54 54 55 56 57 57 57 57 56 56 55 55 55 55 54 53 53 52 51 51 50 50 50 50 50 50 49 47 46 45 43 42 42 41 40 39 38 37
52 54 56 57 58 59 60 60 60 61 61 62 61 61 61 61 60 60 59 58 57 56 56 55 55 54 53 53 53 53 53 52 51 50 49 48 47 46 45 45 44 43 42
58 60 61 63 64 64 65 65 65 65 65 65 65 65 64 64 64 65 64 64 63 61 60 59 59 58 58 57 57 56 56 55 54 53 51 50 49 49 48 48 48 47 45
66 67 68 68 69 69 69 69 69 69 68 68 68 68 68 67 66 67 67 67 67 66 65 64 63 62 61 61 61 61 60 59 58 56 55 54 52 51 50 49 49 48 47
75 76 76 75 75 74 74 74 74 74 74 73 73 72 72 71 70 70 70 69 69 69 68 68 68 67 66 65 65 64 64 63 62 61 60 58 57 55 54 53 51 51 49
83 83 82 82 81 80 80 79 79 80 80 80 79 78 77 76 76 76 76 75 75 74 73 72 72 71 70 68 68 68 67 67 65 65 64 63 62 60 59 57 56 55 54
87 87 88 87 87 86 85 85 84 83 84 85 85 84 83 83 82 82 82 82 82 81 79 78 77 77 75 73 72 71 70 69 68 68 67 66 66 65 64 63 61 59 58
86 86 84 82 81 80 79 80 81 82 83 85 86 87 87 87 87 87 87 87 88 87 87 85 83 82 81 79 77 75 73 71 70 69 69 69 69 69 68 67 66 64 63
77 73 68 65 63 62 61 61 62 63 65 68 74 79 82 84 86 87 88 89 90 91 91 90 89 87 86 84 82 80 78 76 74 71 69 68 69 69 70 70 69 68 67
60 56 54 52 51 51 51 50 49 46 43 43 46 52 59 66 70 74 78 81 84 86 89 90 90 90 89 88 87 85 83 81 79 76 73 71 70 70 69 70 70 70 70
Wind_Direction
241 241 243 246 249 255 260 266 272 278 281 284 285 286 287 287 285 279 271 263 258 257 257 258 259 259 261 260 260 261 265 266 265 267 269 269 264 256 249 243 238 232 227
247 247 248 250 254 257 261 265 270 274 278 279 281 282 282 280 277 274 267 260 255 253 252 253 254 256 258 259 259 259 260 262 262 261 262 262 261 257 252 248 243 238 233
252 251 253 255 258 261 264 267 270 273 275 276 277 278 278 277 273 269 263 257 253 251 250 251 252 254 256 258 259 259 259 259 257 257 257 258 258 257 254 250 246 241 237
257 257 259 261 264 266 267 268 270 272 273 274 274 275 275 274 270 266 260 255 252 250 249 251 253 255 256 256 257 257 258 257 254 252 253 254 255 257 255 252 248 242 238
266 265 266 267 268 268 268 269 270 271 272 272 271 271 271 270 268 264 260 255 251 249 249 251 253 255 256 256 256 255 255 254 252 249 249 251 253 254 254 252 249 245 240
277 274 272 271 270 269 269 269 270 270 270 269 269 268 268 266 264 262 259 256 253 252 251 251 252 254 254 254 254 253 251 250 248 246 246 248 252 253 253 251 248 246 242
280 278 277 275 274 273 272 272 271 271 270 269 268 266 264 263 261 259 258 257 256 255 254 253 253 252 252 252 251 250 250 248 246 244 244 246 249 251 251 248 246 244 241
277 276 276 275 275 275 274 273 273 272 272 271 269 267 264 262 260 258 257 256 255 254 254 254 254 253 251 250 249 249 248 247 245 243 244 245 247 248 248 245 243 241 239
275 275 276 276 275 274 273 272 271 271 270 270 269 267 265 263 261 259 258 256 254 253 252 252 252 252 251 249 249 248 247 246 244 242 244 245 246 247 246 243 241 238 236
282 282 282 282 281 278 276 275 273 272 270 269 268 267 265 263 261 260 259 257 255 252 251 250 249 249 249 248 248 247 247 246 244 242 243 245 246 246 246 243 239 235 233
289 288 287 286 284 282 280 278 275 274 271 269 267 266 265 264 262 260 258 257 256 253 251 249 247 247 247 246 246 245 245 246 245 244 243 244 245 245 245 242 239 235 232
293 291 288 286 284 282 281 280 279 277 275 273 270 268 266 265 264 262 261 259 256 254 252 250 247 245 244 244 243 243 243 244 244 243 241 242 243 244 243 241 239 236 232
297 294 291 288 285 282 280 279 278 277 275 274 272 271 268 267 265 264 263 262 259 255 252 250 248 245 244 242 242 242 241 242 242 242 239 238 239 242 243 241 239 237 234
298 296 293 290 287 283 280 277 276 274 273 272 271 269 268 266 266 265 263 262 261 257 253 250 248 246 244 242 241 241 241 240 240 239 237 235 236 238 241 241 238 237 235
297 295 293 290 287 285 282 279 277 274 271 269 268 267 266 264 263 264 263 261 259 257 255 253 250 248 246 243 242 241 240 240 239 237 235 233 233 235 237 238 237 235 234
295 293 290 288 285 283 281 279 277 275 272 270 267 265 264 262 261 260 260 260 259 257 254 253 252 249 247 245 243 242 241 240 238 237 235 233 231 233 235 236 236 235 234
295 292 290 287 285 283 281 278 276 274 273 271 268 265 263 261 259 258 256 256 256 256 255 253 252 251 248 246 244 243 242 241 240 239 237 235 233 233 234 236 237 237 237
294 291 289 287 285 283 281 279 276 274 272 270 268 266 264 261 259 258 256 255 254 253 253 253 252 251 250 248 246 245 244 243 241 240 239 238 237 235 235 237 239 240 240
294 291 289 287 284 282 281 279 276 273 271 268 266 264 263 262 260 259 257 256 255 253 252 251 251 250 249 248 247 247 246 245 243 241 240 239 239 238 238 238 239 241 242
296 293 290 287 284 282 280 278 276 273 270 267 265 263 262 261 260 259 258 257 256 254 252 251 250 249 248 248 247 246 246 246 245 244 242 240 240 239 239 239 240 241 242
297 295 292 290 286 283 279 275 273 271 269 268 266 263 261 260 259 258 257 256 256 255 254 252 251 249 248 248 247 246 245 245 245 245 245 243 241 240 240 240 240 242 243
297 295 293 290 286 283 279 275 271 267 264 263 263 262 262 260 259 258 258 257 257 256 255 254 252 250 249 248 248 247 246 245 245 245 245 245 244 242 241 241 241 241 242
298 296 295 293 292 290 287 282 276 271 267 263 260 259 258 258 258 258 258 258 257 257 256 256 256 253 251 249 248 248 246 245 245 244 244 244 244 244 243 242 242 242 243
300 300 301 301 301 300 299 295 290 282 274 267 263 260 259 258 257 257 257 257 258 257 257 256 256 256 254 252 250 248 247 246 245 244 244 244 244 244 244 243 243 243 244
307 308 310 311 310 309 308 306 302 296 288 278 269 263 261 261 261 260 259 259 259 259 259 258 257 255 254 253 252 251 249 247 245 244 243 243 244 243 244 244 244 244 244
315 317 319 320 320 319 318 317 316 311 302 291 278 269 264 262 262 263 264 263 262 261 261 260 258 256 254 253 252 251 251 249 248 246 244 243 242 242 243 243 243 243 244
Height
5856 5855 5855 5855 5855 5855 5855 5854 5854 5854 5853 5854 5854 5854 5854 5854 5854 5854 5854 5855 5855 5856 5856 5857 5857 5858 5858 5859 5859 5860 5860 5860 5861 5861 5862 5862 5863 5863 5864 5865 5866 5867 5868
5852 5852 5852 5852 5851 5851 5851 5851 5850 5850 5850 5850 5850 5850 5850 5850 5850 5850 5850 5851 5852 5852 5853 5853 5854 5854 5855 5856 5856 5857 5857 5858 5858 5858 5859 5859 5860 5861 5861 5862 5863 5864 5865
5848 5848 5848 5848 5848 5847 5847 5847 5846 5846 5845 5845 5845 5845 5845 5845 5845 5845 5845 5846 5847 5848 5848 5849 5850 5850 5851 5852 5852 5853 5853 5854 5855 5855 5856 5856 5857 5858 5858 5859 5860 5861 5863
5844 5844 5844 5844 5844 5843 5843 5842 5842 5841 5840 5840 5840 5840 5840 5840 5840 5840 5840 5841 5841 5842 5843 5844 5845 5846 5846 5847 5848 5849 5849 5850 5851 5852 5853 5853 5854 5855 5855 5856 5857 5858 5860
5841 5840 5840 5840 5839 5838 5838 5837 5836 5836 5835 5835 5834 5834 5834 5834 5834 5834 5835 5835 5836 5836 5837 5838 5839 5840 5841 5842 5843 5844 5844 5845 5846 5848 5849 5850 5851 5851 5852 5853 5854 5855 5856
5838 5837 5836 5835 5834 5833 5833 5832 5831 5830 5830 5829 5829 5828 5828 5828 5828 5829 5829 5829 5830 5830 5831 5832 5833 5834 5835 5837 5838 5838 5838 5840 5841 5843 5844 5846 5847 5847 5848 5849 5850 5851 5852
5834 5833 5832 5831 5830 5829 5828 5826 5825 5824 5824 5823 5822 5822 5822 5821 5821 5822 5822 5823 5823 5824 5824 5825 5826 5827 5828 5830 5831 5832 5833 5834 5836 5838 5839 5841 5842 5843 5844 5844 5845 5847 5848
5829 5827 5826 5825 5824 5822 5821 5820 5818 5817 5816 5816 5815 5815 5814 5814 5814 5814 5815 5815 5816 5817 5817 5818 5819 5820 5821 5823 5824 5826 5827 5829 5831 5832 5834 5835 5837 5838 5839 5840 5841 5843 5844
5823 5821 5820 5818 5816 5815 5813 5812 5810 5809 5808 5807 5807 5806 5806 5806 5806 5806 5807 5808 5808 5809 5809 5810 5811 5812 5814 5816 5817 5819 5821 5823 5825 5827 5828 5829 5831 5833 5835 5836 5837 5838 5840
5818 5816 5813 5811 5809 5807 5805 5803 5802 5800 5799 5798 5798 5797 5797 5797 5798 5798 5798 5799 5800 5801 5801 5802 5803 5804 5806 5808 5810 5812 5814 5816 5819 5821 5822 5823 5825 5827 5829 5831 5832 5834 5836
5812 5810 5807 5805 5802 5800 5798 5796 5794 5792 5790 5789 5789 5788 5788 5788 5788 5788 5789 5790 5790 5791 5792 5793 5794 5796 5797 5799 5802 5804 5806 5809 5811 5814 5816 5817 5818 5820 5822 5824 5827 5829 5831
5807 5804 5801 5799 5796 5793 5790 5788 5786 5784 5782 5780 5779 5779 5779 5779 5779 5779 5779 5780 5780 5781 5782 5784 5785 5786 5788 5790 5793 5795 5798 5801 5803 5806 5808 5810 5812 5813 5815 5818 5821 5823 5826
5800 5797 5794 5791 5788 5785 5782 5779 5777 5775 5773 5771 5770 5769 5769 5769 5769 5769 5770 5770 5770 5771 5772 5773 5775 5777 5779 5781 5783 5786 5789 5792 5795 5798 5800 5803 5805 5806 5808 5811 5814 5817 5820
5793 5789 5786 5782 5779 5776 5773 5770 5767 5765 5763 5761 5760 5759 5759 5758 5758 5759 5759 5760 5760 5761 5762 5763 5764 5767 5769 5771 5774 5777 5780 5783 5785 5788 5792 5795 5797 5799 5801 5804 5807 5810 5813
5785 5781 5777 5773 5769 5765 5762 5758 5756 5753 5751 5750 5748 5747 5747 5747 5747 5747 5748 5748 5749 5750 5752 5753 5755 5757 5759 5761 5764 5767 5770 5773 5776 5779 5783 5786 5789 5791 5794 5797 5800 5803 5806
5776 5771 5766 5762 5757 5753 5749 5745 5742 5740 5738 5736 5735 5734 5733 5733 5733 5734 5734 5735 5737 5738 5740 5741 5743 5746 5748 5751 5754 5757 5760 5763 5767 5770 5773 5777 5780 5783 5786 5789 5792 5796 5799
5767 5761 5755 5750 5744 5740 5736 5732 5728 5725 5722 5720 5719 5718 5718 5718 5718 5719 5720 5721 5723 5725 5727 5729 5731 5733 5736 5739 5742 5745 5749 5752 5756 5760 5763 5767 5771 5774 5777 5780 5783 5787 5791
5756 5749 5743 5737 5731 5726 5721 5717 5713 5709 5706 5703 5702 5701 5701 5701 5701 5702 5704 5705 5707 5709 5712 5715 5718 5720 5723 5727 5730 5733 5736 5740 5744 5748 5752 5756 5760 5764 5767 5771 5774 5778 5782
5744 5737 5730 5723 5717 5711 5705 5700 5696 5692 5689 5686 5683 5682 5681 5682 5682 5684 5685 5687 5690 5693 5696 5699 5703 5706 5709 5712 5716 5719 5723 5727 5731 5735 5739 5743 5747 5752 5756 5760 5763 5767 5772
5728 5720 5712 5705 5698 5693 5687 5682 5677 5673 5670 5667 5665 5663 5662 5662 5663 5664 5666 5668 5670 5674 5678 5681 5685 5689 5693 5697 5700 5704 5708 5712 5716 5721 5726 5730 5734 5739 5743 5748 5752 5756 5761
5709 5699 5691 5683 5675 5669 5663 5658 5655 5651 5649 5646 5644 5642 5641 5642 5642 5643 5645 5648 5650 5654 5658 5662 5666 5670 5676 5679 5683 5688 5693 5697 5702 5706 5711 5716 5721 5725 5730 5735 5739 5744 5749
5686 5675 5665 5655 5647 5639 5633 5628 5625 5623 5621 5621 5620 5620 5619 5619 5620 5622 5624 5627 5630 5634 5638 5641 5645 5650 5656 5660 5664 5668 5675 5681 5687 5690 5695 5701 5706 5711 5716 5721 5726 5731 5736
5660 5647 5635 5624 5615 5608 5601 5596 5594 5592 5591 5590 5590 5592 5593 5594 5595 5597 5600 5604 5608 5612 5617 5620 5624 5628 5634 5640 5644 5649 5655 5664 5669 5673 5679 5684 5690 5695 5701 5706 5712 5717 5722
5637 5624 5613 5602 5591 5581 5572 5565 5559 5557 5558 5559 5560 5563 5565 5566 5569 5572 5575 5579 5583 5588 5593 5598 5602 5606 5611 5618 5624 5629 5636 5642 5649 5656 5661 5667 5672 5678 5684 5690 5696 5702 5708
5617 5606 5596 5586 5575 5565 5555 5545 5536 5529 5525 5526 5529 5534 5538 5541 5544 5547 5551 5555 5560 5564 5568 5573 5578 5583 5589 5595 5601 5608 5614 5620 5627 5635 5643 5649 5654 5660 5666 5673 5679 5685 5691
5604 5594 5585 5575 5565 5554 5544 5533 5523 5515 5508 5505 5504 5508 5513 5518 5522 5524 5528 5532 5536 5540 5543 5547 5552 5558 5564 5571 5578 5584 5591 5598 5606 5613 5621 5629 5635 5642 5648 5654 5661 5668 5675